Wetbulb
53.79 53.92 54.18 54.32 54.17 54.17 54.12 54.16 54.32 54.41 54.95 55.20 55.27 55.36 55.69 55.35 55.38 54.57 50.92 55.61 57.11 59.36 57.09 59.11 58.87 56.62 57.08 54.94 53.68 53.34 46.31 44.74 45.96 45.80 47.36 50.25 48.67 52.36 54.07 52.67 54.10 56.31 58.16 64.99 69.83
53.32 53.57 53.59 53.67 53.60 53.53 53.61 53.63 53.76 54.08 54.17 54.35 54.84 54.88 55.17 54.72 52.59 50.90 57.40 56.49 57.65 57.23 55.47 55.09 54.11 56.06 53.41 53.24 52.41 49.50 47.09 47.90 50.39 50.40 48.39 50.12 50.15 50.87 50.45 51.07 51.77 54.03 57.13 64.92 69.30
53.08 53.15 53.15 53.00 52.87 52.78 52.82 52.99 53.18 53.29 53.60 53.54 53.66 53.74 54.19 54.32 48.92 49.70 60.13 59.86 57.04 57.54 55.96 55.71 55.35 54.66 51.80 53.09 51.91 50.23 47.97 51.77 51.32 51.17 50.75 49.76 49.55 50.85 49.85 49.64 52.31 52.40 55.17 60.34 65.47
52.72 52.73 52.71 52.45 52.51 52.57 52.53 52.51 52.85 53.17 52.98 52.83 52.91 53.11 53.69 51.75 41.17 55.89 59.64 58.91 58.30 58.24 55.55 53.72 52.96 51.17 49.17 48.69 52.43 47.22 50.72 51.57 52.49 51.68 49.93 49.08 50.89 49.86 50.38 51.35 53.39 54.61 55.99 56.05 62.95
52.08 52.23 52.29 51.99 52.05 52.07 52.07 52.31 52.60 52.64 52.68 52.64 52.57 52.51 51.89 46.78 47.19 58.03 61.80 56.59 56.58 58.25 54.76 52.02 50.46 50.47 47.21 48.90 50.02 48.71 49.53 50.98 51.29 51.32 51.00 51.22 49.86 49.85 50.40 52.64 53.56 53.84 54.40 54.95 56.53
51.43 51.54 51.46 51.46 51.48 51.56 52.16 52.46 52.65 52.34 52.20 52.37 52.53 51.95 48.37 39.28 51.77 53.33 54.26 56.19 55.01 57.37 56.03 54.95 50.40 51.73 49.39 48.79 48.23 49.54 49.31 49.61 49.92 50.39 50.87 49.39 49.72 50.23 50.95 53.17 52.87 53.22 53.71 54.59 56.16
51.01 50.86 50.70 50.88 50.94 51.26 52.30 52.10 52.10 52.56 52.14 52.40 53.09 50.67 45.18 45.10 52.09 53.41 53.49 52.79 54.95 54.72 53.95 56.85 54.99 51.16 50.38 48.18 51.23 49.37 46.36 47.99 48.96 49.49 48.34 50.08 46.94 47.81 51.91 52.72 52.10 52.95 53.68 54.31 56.29
50.43 50.44 50.63 50.83 51.02 51.77 52.21 52.20 52.23 52.20 52.78 53.03 52.90 49.44 40.95 52.25 54.42 52.11 52.79 51.55 53.32 54.90 55.21 56.56 56.49 53.65 50.94 52.15 48.65 47.21 46.92 43.40 48.29 48.95 49.59 48.24 43.71 48.87 52.42 51.65 51.07 52.05 52.88 53.51 55.43
50.40 51.30 50.52 50.84 50.95 51.18 51.75 51.64 52.27 52.67 53.25 52.92 50.89 47.54 42.34 53.87 49.81 53.23 54.19 50.43 51.95 52.05 52.42 54.88 54.43 51.52 50.88 46.72 44.70 46.28 42.51 43.28 45.89 49.97 48.46 47.46 45.17 49.72 50.57 51.60 51.30 52.60 53.15 53.13 55.02
50.35 50.92 50.82 50.67 51.11 51.75 51.82 51.99 53.00 52.60 53.71 52.77 50.29 42.80 47.14 45.79 50.41 52.30 55.73 52.98 49.37 49.36 47.62 49.56 49.95 46.58 47.02 45.08 39.23 42.33 42.66 45.14 45.27 48.21 47.57 46.55 45.82 49.21 50.83 50.58 51.49 52.45 53.12 53.24 54.47
49.97 50.50 50.70 51.22 51.52 51.34 51.32 51.85 47.73 47.01 47.41 43.28 44.12 44.75 46.18 48.89 52.25 49.23 53.62 51.03 51.06 47.06 41.96 46.36 42.41 40.84 44.35 46.55 46.70 46.47 45.93 44.63 46.67 49.06 46.59 46.33 47.44 48.12 50.38 50.25 50.72 52.26 53.25 53.79 54.84
49.76 49.78 50.53 51.19 51.38 51.31 51.65 46.46 45.99 46.76 38.65 46.27 45.77 44.47 46.15 46.90 42.50 44.97 53.26 47.25 46.65 43.02 44.91 42.67 38.74 44.14 46.42 46.91 45.16 44.89 43.95 44.55 46.73 47.70 46.44 46.98 46.36 49.32 50.66 50.45 51.32 51.98 52.63 53.52 54.78
50.52 50.69 50.71 51.14 50.89 51.48 49.25 47.09 50.35 46.60 37.90 42.79 44.58 43.78 45.83 46.54 40.34 41.44 46.24 46.78 44.27 42.37 41.78 41.08 43.12 45.94 44.28 44.16 43.38 43.86 43.49 43.79 44.01 46.52 47.55 46.14 44.97 47.55 49.78 51.40 51.98 52.70 53.58 54.44 54.71
50.38 50.48 50.56 50.54 48.85 50.14 47.74 50.62 50.92 47.23 35.00 38.29 42.29 45.73 47.50 47.31 41.04 49.40 48.76 44.76 41.26 39.92 42.10 42.51 45.82 44.21 43.14 42.80 44.59 40.98 46.27 45.51 43.61 43.13 39.98 46.06 40.28 46.41 48.54 49.54 50.67 52.06 52.69 53.46 54.92
50.17 50.46 50.48 49.67 49.37 46.99 48.90 52.05 51.44 45.21 23.93 40.36 42.20 51.28 48.21 43.74 45.95 45.47 50.97 47.32 40.12 40.41 40.51 39.45 40.75 40.93 41.69 42.72 45.63 43.07 47.16 45.55 44.94 43.19 43.46 42.96 40.74 45.93 49.06 47.83 49.68 51.58 52.61 53.86 55.43
49.92 50.26 49.89 50.96 50.68 50.32 51.86 51.56 48.67 32.70 24.11 36.34 41.84 40.19 41.23 43.84 44.33 46.84 47.04 50.05 48.38 43.20 43.33 42.68 46.53 44.56 43.07 45.75 46.81 47.49 45.14 45.07 45.23 43.44 37.78 42.82 41.95 43.97 46.39 48.25 50.36 52.22 52.82 53.84 54.87
49.61 49.62 49.41 50.29 46.14 51.30 52.18 48.35 34.38 29.33 38.59 34.73 36.08 39.51 38.39 39.22 39.55 42.31 42.29 41.69 39.86 36.20 36.50 40.04 41.43 45.29 46.27 42.03 46.17 44.01 39.95 32.47 32.17 33.05 35.70 44.12 42.24 44.82 49.50 50.23 51.34 52.10 53.08 54.40 55.74
48.78 48.62 50.42 50.07 51.75 52.45 50.23 41.49 27.24 33.57 33.68 38.89 37.60 38.23 34.50 38.54 39.22 39.23 39.83 37.78 42.40 41.48 37.60 34.22 33.13 42.39 44.85 42.63 40.88 42.76 42.03 37.48 30.54 32.92 37.01 43.24 39.31 44.37 49.90 53.25 56.06 56.56 56.37 56.76 56.79
48.08 50.77 49.56 50.57 51.47 52.03 44.90 32.51 30.83 32.63 35.53 33.84 35.84 33.97 34.48 36.78 36.97 37.63 39.30 38.96 41.98 43.87 36.88 35.67 36.00 44.85 45.52 47.03 45.24 41.88 39.96 46.39 40.99 42.20 39.32 41.01 44.43 49.50 51.64 53.45 55.03 56.86 58.02 56.81 56.86
47.30 47.68 46.88 51.16 52.01 49.03 39.87 29.84 33.68 37.16 37.23 37.14 31.28 34.63 31.42 34.27 33.14 35.07 37.85 42.28 41.07 43.55 45.31 40.33 35.36 43.29 44.34 46.42 46.14 44.85 46.73 37.91 41.02 33.47 32.90 39.19 41.24 43.24 48.65 51.58 54.68 56.85 54.97 55.62 57.29
47.47 43.33 47.75 51.46 50.92 44.35 31.92 31.55 35.05 38.95 38.98 35.32 33.49 32.88 32.88 33.12 33.94 33.87 37.52 41.35 41.52 41.14 41.32 39.16 38.40 39.52 42.63 40.37 41.49 42.41 40.24 42.20 43.86 41.82 36.76 35.95 41.21 51.38 51.50 54.03 54.38 52.26 52.75 53.26 54.04
45.32 39.50 48.62 50.48 39.57 39.24 32.65 34.11 37.75 37.15 40.13 38.03 38.09 36.82 35.16 35.88 33.40 33.86 33.53 37.85 41.83 39.93 35.44 40.52 39.36 35.21 39.25 45.18 47.39 44.90 43.87 43.74 38.21 38.64 42.15 41.86 42.64 54.43 55.14 54.77 51.54 50.79 51.32 52.12 52.83
41.45 43.16 49.10 47.79 31.98 31.63 36.19 34.75 37.29 36.53 37.80 37.41 35.41 37.27 38.77 35.59 31.03 34.80 35.57 41.57 42.29 36.18 36.48 39.77 37.62 31.62 34.24 39.84 42.36 41.95 44.82 45.18 46.05 45.31 41.32 39.03 41.75 52.44 50.85 49.72 50.14 49.51 49.76 50.29 51.11
41.75 37.06 43.02 44.03 40.58 33.17 31.68 34.40 33.30 39.61 38.56 38.47 37.10 39.09 36.34 33.81 36.11 33.35 33.87 38.66 40.62 39.11 45.34 41.74 37.00 36.32 34.72 36.75 40.14 38.05 43.26 44.49 44.56 40.04 41.69 42.83 44.10 48.65 47.87 48.22 49.33 49.39 49.68 49.88 50.82
41.55 37.01 37.64 33.87 35.52 33.77 34.95 34.55 31.58 31.46 37.04 38.52 36.85 37.25 34.08 30.22 31.35 34.50 36.21 35.84 39.56 41.14 39.71 37.39 33.73 41.25 43.72 42.34 41.72 42.41 43.38 43.58 42.19 42.99 40.36 45.91 45.51 47.02 47.99 48.54 48.89 49.54 49.95 50.29 50.72
38.32 36.27 38.76 34.44 37.14 34.38 35.15 33.26 32.21 33.21 34.19 34.78 34.56 36.53 34.51 31.94 33.95 30.68 33.71 33.77 34.08 40.26 37.11 38.52 34.22 39.81 41.12 42.73 41.84 40.64 43.81 43.41 44.22 43.25 45.45 47.90 45.16 49.42 49.74 49.25 48.07 49.09 49.88 49.43 50.66
42.85 43.36 38.55 34.69 36.82 34.30 33.80 33.29 33.58 36.26 37.69 37.60 35.75 34.66 33.72 35.94 37.79 37.49 37.89 37.79 37.06 35.38 34.92 35.57 35.37 39.06 36.60 41.09 39.66 35.08 42.18 42.51 44.21 46.54 47.53 44.39 45.27 47.84 47.04 47.63 48.43 48.16 48.45 48.29 49.45
MSLP
1020.86 1020.42 1020.00 1019.59 1019.25 1018.88 1018.48 1018.17 1017.79 1017.40 1017.05 1016.71 1016.33 1015.86 1015.37 1014.83 1014.19 1012.88 1010.65 1009.49 1009.65 1010.10 1010.71 1009.41 1009.21 1008.83 1008.65 1007.36 1006.89 1006.33 1004.31 1001.55 1000.78 1000.67 1000.48 1001.03 1001.69 1001.48 1001.60 1001.38 1001.47 1001.27 1001.18 1001.76 1002.91
1020.93 1020.45 1020.01 1019.59 1019.16 1018.73 1018.34 1017.93 1017.46 1017.03 1016.68 1016.30 1015.95 1015.71 1015.43 1014.95 1013.64 1010.86 1008.41 1008.91 1009.56 1010.03 1010.01 1008.60 1007.95 1007.98 1007.33 1006.63 1006.29 1005.28 1002.93 1001.12 1001.02 1000.60 1000.82 1000.89 1001.42 1001.31 1001.68 1001.52 1001.19 1001.43 1001.57 1002.61 1002.96
1020.95 1020.45 1019.98 1019.54 1019.03 1018.52 1018.12 1017.72 1017.32 1016.90 1016.49 1016.09 1015.82 1015.51 1015.16 1014.78 1012.27 1007.25 1007.55 1007.83 1009.15 1009.71 1009.07 1008.04 1007.21 1007.26 1006.21 1005.61 1004.78 1004.04 1001.52 1001.37 1001.18 1001.14 1001.52 1001.40 1001.38 1001.73 1001.28 1000.75 1000.85 1001.03 1001.20 1002.04 1002.53
1020.92 1020.40 1019.92 1019.41 1018.84 1018.25 1017.77 1017.36 1016.94 1016.55 1016.21 1015.93 1015.66 1015.36 1015.01 1014.19 1010.00 1007.03 1008.02 1008.29 1009.09 1009.01 1008.28 1007.83 1007.02 1006.36 1005.21 1004.34 1003.97 1003.36 1002.26 1001.98 1001.26 1001.65 1002.02 1001.67 1001.75 1001.30 1001.51 1001.05 1000.96 1001.23 1001.46 1002.15 1002.29
1020.82 1020.24 1019.68 1019.14 1018.50 1017.79 1017.18 1016.71 1016.26 1015.88 1015.64 1015.43 1015.28 1015.16 1014.57 1012.22 1008.41 1007.38 1007.83 1008.14 1008.22 1008.43 1007.93 1007.02 1006.31 1005.33 1003.96 1003.51 1003.57 1002.71 1002.26 1002.07 1002.18 1001.86 1001.83 1002.04 1001.53 1001.49 1001.21 1001.58 1001.60 1001.71 1001.92 1002.00 1002.03
1020.69 1020.06 1019.50 1018.87 1018.28 1017.56 1016.76 1016.02 1015.38 1015.11 1014.81 1014.55 1014.51 1014.63 1013.81 1010.89 1006.91 1007.23 1007.26 1007.29 1007.36 1007.27 1007.10 1006.58 1005.44 1004.91 1003.68 1002.99 1002.42 1002.10 1002.45 1002.20 1002.08 1001.94 1002.09 1001.87 1001.53 1001.75 1001.47 1001.89 1001.86 1001.91 1001.65 1001.44 1001.46
1020.57 1019.89 1019.24 1018.52 1017.85 1017.03 1016.16 1015.28 1014.44 1013.87 1013.49 1013.54 1013.70 1013.82 1012.42 1008.12 1006.73 1006.83 1007.11 1006.64 1006.82 1006.21 1006.07 1006.03 1005.24 1004.69 1003.80 1003.24 1002.45 1002.35 1002.13 1001.89 1001.32 1001.62 1001.76 1002.10 1001.08 1000.30 1001.18 1001.50 1001.49 1001.12 1001.25 1001.10 1000.99
1020.45 1019.66 1018.91 1018.11 1017.27 1016.48 1015.52 1014.63 1013.49 1012.78 1012.06 1012.00 1012.27 1012.88 1010.15 1007.39 1006.83 1007.05 1007.04 1006.63 1006.70 1006.89 1006.86 1006.06 1005.66 1005.00 1003.79 1003.13 1002.62 1002.03 1001.79 1000.30 1000.12 1000.98 1001.15 1001.90 999.15 999.45 999.72 1000.70 1000.90 1000.72 1000.59 1000.48 1000.41
1020.03 1019.29 1018.47 1017.61 1016.73 1015.76 1014.72 1013.38 1012.55 1011.52 1011.09 1011.17 1011.51 1011.34 1007.69 1006.19 1006.12 1005.37 1005.61 1005.51 1005.91 1006.38 1007.23 1006.99 1006.26 1004.84 1004.44 1003.28 1002.27 1000.75 998.53 998.95 999.17 999.61 1000.43 1000.54 999.18 999.10 999.79 999.74 999.97 999.88 999.80 999.82 999.81
1019.70 1019.04 1018.03 1017.13 1016.16 1015.17 1014.04 1012.38 1011.26 1011.21 1010.53 1010.67 1010.46 1010.79 1006.83 1004.57 1004.48 1004.80 1004.63 1005.11 1005.42 1005.43 1006.68 1006.47 1005.42 1004.22 1003.40 1002.05 998.37 998.51 998.74 998.08 997.96 998.68 999.88 999.16 999.03 998.64 998.90 999.34 999.17 998.99 998.89 998.83 998.90
1019.29 1018.41 1017.54 1016.42 1015.47 1014.83 1013.49 1010.34 1010.42 1009.45 1009.40 1008.98 1007.69 1006.71 1004.28 1003.92 1004.24 1004.10 1004.85 1004.92 1004.57 1004.87 1004.29 1004.56 1004.26 1001.19 999.60 1000.51 1000.30 998.80 998.03 997.76 997.94 998.54 999.24 998.48 997.93 998.14 998.25 998.61 998.42 998.50 998.11 998.26 998.33
1018.89 1017.87 1016.93 1015.84 1014.94 1014.21 1013.17 1011.73 1012.09 1012.68 1009.79 1007.38 1006.21 1005.57 1005.01 1005.02 1003.91 1004.31 1004.43 1004.15 1003.80 1003.12 1003.36 1003.24 1001.42 1000.42 1001.40 1000.65 1000.55 999.87 998.80 997.89 998.27 998.43 998.85 997.91 997.62 997.54 997.38 997.73 997.93 997.95 997.97 997.96 998.29
1018.50 1017.52 1016.55 1015.44 1014.20 1013.34 1012.47 1012.31 1012.51 1013.04 1011.34 1005.78 1004.78 1004.45 1003.78 1003.78 1003.91 1003.27 1003.69 1003.37 1002.75 1002.26 1001.56 1000.70 999.53 1000.04 1000.30 1000.34 999.99 999.64 998.71 998.31 998.26 998.38 998.61 998.09 997.06 996.57 996.54 996.87 997.21 997.33 997.45 997.45 997.53
1018.08 1017.00 1016.02 1015.13 1013.60 1012.51 1011.36 1012.21 1012.43 1012.96 1010.16 1004.68 1003.21 1003.59 1003.60 1003.45 1003.46 1002.50 1002.49 1003.01 1003.05 1001.74 1000.91 1000.04 999.46 998.87 999.72 999.34 999.68 998.82 999.19 998.91 998.96 998.18 997.32 997.76 994.86 994.67 995.28 995.36 995.94 996.39 996.67 996.73 996.93
1017.64 1016.45 1015.54 1014.88 1013.51 1012.13 1011.93 1011.91 1011.96 1012.43 1008.69 1004.44 1002.91 1002.40 1002.28 1002.76 1001.46 1000.29 1001.35 1001.43 1001.59 1001.37 1001.68 999.27 998.97 998.79 998.57 998.47 999.02 998.40 999.18 999.34 999.20 998.41 997.20 996.66 996.01 993.03 994.02 994.13 994.49 995.35 995.72 996.12 996.38
1017.17 1016.01 1015.40 1013.27 1012.67 1011.91 1011.74 1011.82 1011.65 1010.84 1006.97 1005.08 1004.39 1003.77 1002.81 1001.98 1001.09 1000.19 999.89 1000.75 1000.61 1000.68 1000.56 999.62 999.35 998.43 997.71 998.31 998.68 999.41 999.29 999.23 999.43 998.36 996.81 995.70 995.15 992.85 992.71 993.12 993.72 994.46 994.94 995.43 995.88
1016.77 1015.57 1014.95 1013.80 1012.42 1011.85 1011.53 1010.75 1010.16 1008.17 1006.73 1005.82 1005.17 1004.48 1003.87 1002.68 1002.13 1000.90 1000.10 1000.11 1000.18 1000.06 999.72 999.67 998.84 998.52 998.50 997.97 998.43 999.19 999.04 998.97 998.51 997.34 994.74 994.97 994.39 993.03 992.46 993.19 993.38 993.79 994.44 995.00 995.58
1016.41 1014.98 1014.05 1013.31 1012.28 1011.72 1010.78 1009.75 1008.84 1008.16 1008.30 1007.84 1006.65 1005.06 1004.59 1004.16 1002.95 1002.14 1000.91 999.82 999.83 999.57 999.00 998.59 997.69 997.41 998.42 996.91 996.99 997.71 997.85 995.49 994.44 994.11 993.40 994.33 993.15 993.03 993.77 994.76 995.32 995.35 995.43 996.04 996.26
1015.84 1013.91 1012.61 1012.53 1012.29 1011.58 1010.06 1009.20 1010.00 1010.33 1009.93 1008.83 1007.05 1005.49 1004.98 1005.15 1004.82 1003.02 1000.73 999.59 999.23 999.56 999.17 997.79 996.79 996.26 996.17 997.07 997.20 997.16 996.79 994.56 993.56 993.95 993.06 993.34 993.55 994.17 994.39 995.52 996.19 996.41 996.75 997.10 997.46
1015.60 1013.92 1012.66 1012.65 1012.21 1010.82 1010.25 1011.13 1011.07 1011.14 1010.56 1009.67 1008.44 1007.26 1006.63 1006.11 1005.09 1003.71 1001.30 999.85 999.50 1000.20 1000.62 999.69 998.01 996.28 996.40 996.86 996.97 996.12 995.97 994.90 993.44 992.34 992.08 992.24 993.02 992.53 994.75 995.83 997.25 997.99 999.76 1000.61 1001.14
1015.05 1013.22 1013.21 1012.59 1011.60 1010.72 1011.78 1012.09 1011.53 1011.24 1010.88 1010.34 1009.46 1008.74 1007.99 1007.00 1005.89 1004.47 1002.89 1001.71 1002.16 1002.11 1002.16 1001.29 999.96 997.25 996.94 996.48 995.29 995.25 995.37 994.64 993.30 992.01 991.25 991.62 992.96 993.56 994.71 996.56 998.41 1000.71 1001.88 1002.68 1003.12
1015.38 1012.97 1013.83 1012.65 1011.34 1012.13 1012.78 1012.99 1012.13 1011.15 1010.32 1009.94 1009.87 1008.90 1008.48 1007.56 1006.17 1005.06 1004.28 1003.64 1003.20 1003.09 1001.97 1001.10 1000.03 998.16 996.31 996.66 996.10 994.44 994.62 994.29 992.52 992.00 991.43 991.37 994.87 995.88 996.74 998.80 1000.99 1002.45 1003.46 1004.19 1004.61
1015.80 1014.47 1013.96 1013.25 1013.31 1013.72 1013.77 1013.01 1012.19 1011.22 1010.28 1010.08 1009.55 1008.94 1008.73 1008.03 1007.18 1005.31 1004.59 1003.55 1003.02 1003.63 1002.71 1001.20 1000.06 998.87 997.86 997.51 997.48 995.80 994.03 993.48 992.93 992.03 991.81 992.05 995.93 998.11 1000.17 1001.51 1002.90 1003.66 1004.66 1005.31 1005.62
1016.58 1014.67 1013.98 1013.78 1014.63 1015.22 1014.24 1012.98 1012.27 1011.42 1010.58 1010.51 1009.69 1008.89 1008.69 1008.08 1007.58 1006.23 1005.53 1004.04 1003.62 1003.31 1001.43 1001.43 1000.09 997.78 995.05 994.19 995.68 995.94 994.20 993.51 993.02 992.64 992.36 992.97 996.55 999.29 1001.34 1002.54 1003.78 1004.68 1005.40 1005.83 1006.19
1017.93 1017.47 1017.84 1015.80 1015.40 1015.41 1014.54 1013.52 1012.92 1011.99 1011.36 1010.47 1009.51 1008.98 1009.22 1008.24 1007.44 1005.89 1005.82 1005.08 1003.72 1002.92 1002.51 1001.84 999.83 996.86 994.23 995.30 995.54 995.38 994.08 993.65 993.55 993.39 993.36 994.62 997.15 1000.13 1002.04 1003.27 1004.45 1005.35 1006.01 1006.28 1006.60
1019.50 1019.37 1018.51 1017.71 1016.20 1015.40 1014.48 1013.72 1013.06 1012.39 1012.10 1010.22 1009.94 1009.99 1009.39 1008.58 1008.15 1006.79 1006.55 1005.89 1004.69 1002.80 1002.61 1001.72 1000.01 997.70 995.91 995.97 995.89 995.00 993.81 994.00 994.07 994.47 994.44 995.84 999.24 1001.42 1003.12 1004.43 1005.46 1006.09 1006.39 1006.84 1007.27
1020.82 1020.18 1019.62 1017.91 1015.74 1015.18 1014.77 1014.37 1013.46 1012.85 1011.14 1010.77 1010.34 1009.37 1008.38 1007.80 1007.56 1006.59 1005.93 1005.50 1005.07 1004.62 1003.50 1002.57 1000.97 998.40 996.93 996.30 996.72 996.53 994.26 994.99 995.10 995.29 996.14 997.87 1000.50 1002.50 1004.24 1005.43 1006.25 1006.99 1007.63 1008.23 1008.78
Wind_Speed
16 16 16 16 16 15 15 15 15 14 14 14 15 16 18 20 22 22 27 19 8 20 7 6 11 20 18 15 11 14 11 18 24 23 18 5 12 15 13 12 10 16 15 8 5
18 18 18 18 18 18 18 17 16 15 15 14 13 13 14 17 22 28 24 6 16 3 17 17 16 17 19 21 13 17 16 23 19 17 11 16 16 9 9 15 17 13 10 4 7
20 20 21 21 21 21 20 19 19 18 17 16 15 14 13 14 20 8 9 10 16 16 19 17 15 19 21 18 21 17 26 18 17 16 16 17 17 10 16 16 14 16 15 6 5
22 22 22 23 23 23 23 21 21 20 19 18 16 14 13 10 10 7 13 12 14 16 14 16 17 23 21 20 24 19 24 24 20 15 17 19 17 18 19 16 9 11 10 7 7
23 23 22 23 23 24 25 25 24 22 21 19 17 14 13 13 19 6 15 9 9 14 17 20 24 23 24 19 22 30 21 19 22 17 19 17 18 16 18 17 16 14 12 14 11
24 24 25 25 25 26 25 25 25 25 24 22 17 12 13 22 11 6 13 14 12 16 18 18 16 25 17 26 23 11 25 26 18 22 22 21 19 18 14 16 14 13 15 15 15
23 24 26 26 26 26 25 26 28 27 27 23 19 12 20 27 8 5 8 8 4 20 19 18 21 15 14 17 21 15 17 17 25 21 14 15 26 29 22 14 15 15 16 15 14
24 24 26 28 28 28 28 29 28 30 29 21 15 13 15 16 19 28 26 22 17 4 8 13 18 21 23 14 8 22 21 23 22 21 23 16 19 4 21 24 24 21 17 16 16
25 24 27 28 29 31 30 31 32 18 12 6 8 11 12 6 14 21 20 20 19 22 15 8 12 20 16 21 17 20 23 29 22 20 17 26 15 24 5 17 23 23 20 19 18
25 25 26 28 30 28 28 32 20 11 5 8 3 8 11 10 6 4 6 18 9 15 18 18 11 15 22 21 29 23 24 21 22 19 20 22 21 13 12 19 19 19 19 20 20
27 25 26 26 28 27 20 14 6 6 5 17 20 19 30 16 11 9 5 16 11 20 19 23 19 28 33 28 22 16 23 22 15 14 20 25 21 21 14 11 20 19 16 17 19
29 29 28 28 28 24 12 9 8 9 16 23 21 25 27 23 26 14 16 14 14 19 20 16 28 30 22 22 26 25 20 18 17 18 15 16 20 21 22 21 15 16 18 19 18
28 28 29 29 28 11 8 8 6 7 9 17 7 8 6 5 13 15 23 19 15 19 20 19 13 26 27 25 25 26 27 14 14 17 19 15 20 20 21 22 21 21 18 18 19
29 29 30 27 15 10 6 8 4 3 7 3 2 3 3 3 6 14 16 16 16 22 22 21 22 14 25 29 25 27 24 17 14 12 13 19 8 24 23 21 24 22 21 20 20
30 32 28 20 11 8 11 10 9 3 7 14 9 3 17 8 17 6 18 20 15 17 11 19 21 26 23 29 27 23 22 25 19 16 14 17 11 7 17 21 18 22 21 20 20
30 33 27 1 6 7 11 10 4 7 3 12 14 21 23 22 22 20 10 20 16 17 16 18 10 14 29 21 23 20 19 23 19 16 15 19 17 14 16 18 20 20 21 22 20
33 31 18 8 11 15 10 7 7 4 20 12 26 23 22 20 10 14 15 17 14 10 15 18 20 20 20 27 25 20 17 10 14 14 17 23 16 10 13 10 12 19 22 22 21
34 28 1 5 13 10 9 9 8 18 15 21 20 26 9 10 7 7 10 13 19 20 13 8 9 20 20 18 19 27 24 15 24 23 21 8 19 12 9 8 1 2 4 9 14
30 5 6 13 10 7 9 5 8 13 17 17 24 11 10 8 9 10 11 13 8 15 11 5 9 17 22 22 24 29 27 25 14 23 13 13 5 3 8 10 7 10 13 14 14
11 6 10 18 9 7 7 7 9 12 16 15 8 8 17 14 15 16 9 6 2 4 9 6 9 10 19 24 26 27 26 23 12 22 19 17 17 9 18 15 12 13 14 12 13
6 6 11 17 6 4 7 7 14 18 17 8 11 7 8 13 20 8 8 14 17 8 8 5 3 7 19 17 24 24 21 20 18 12 14 14 11 7 18 17 16 13 12 12 13
7 5 10 13 7 6 9 14 15 15 18 6 9 9 5 19 13 8 9 8 13 13 5 6 5 2 27 8 20 20 23 27 11 16 14 8 10 3 13 15 16 14 13 15 15
10 3 4 8 7 10 12 13 10 21 16 7 9 7 12 12 10 11 9 13 13 11 4 3 6 6 6 6 6 10 27 28 19 7 11 9 10 8 16 16 15 15 15 16 19
7 6 4 5 6 13 17 11 15 18 14 19 14 12 16 19 7 14 14 13 23 15 9 9 4 8 9 17 14 15 21 28 19 10 12 4 18 17 16 17 16 16 17 18 18
6 6 5 8 10 15 14 12 22 16 8 16 7 16 22 10 15 4 20 13 12 4 14 6 4 8 6 22 13 22 27 29 20 17 5 18 18 18 17 17 18 18 19 20 21
6 5 5 9 12 15 11 11 17 22 20 14 10 21 20 11 12 17 16 9 7 9 15 10 7 7 17 22 15 12 24 22 17 7 7 19 17 18 17 16 17 18 20 21 20
2 5 3 11 9 11 9 17 21 22 11 13 19 22 17 11 12 20 18 13 13 11 6 6 7 5 4 20 19 3 19 22 10 17 11 18 14 21 18 16 15 17 19 20 19
Wind_Direction
353 349 344 340 336 330 326 321 318 313 309 307 306 309 310 314 304 279 264 238 204 234 258 221 198 203 218 219 216 228 234 234 233 228 242 226 224 227 247 254 222 202 244 49 120
347 343 340 337 333 328 323 319 314 311 308 305 300 300 302 308 297 281 264 191 216 182 205 200 196 188 200 209 203 211 227 236 244 238 243 223 218 191 211 215 223 219 230 164 163
346 343 341 338 332 326 323 320 316 312 308 304 303 303 297 297 292 253 38 214 200 219 227 216 213 198 210 211 203 216 237 227 236 236 254 246 238 228 235 234 208 210 205 170 201
344 342 338 334 328 323 319 316 313 310 307 304 302 298 298 280 284 110 109 123 182 205 196 205 212 204 216 211 217 246 230 242 242 225 239 239 247 243 230 241 229 229 262 248 221
341 337 334 330 324 320 317 314 309 305 301 296 292 289 278 239 247 150 162 139 186 192 205 200 206 205 217 222 225 223 248 227 245 237 238 248 243 244 237 243 252 240 244 249 244
339 335 332 327 324 320 315 310 305 301 297 291 284 271 243 253 277 244 250 243 234 196 206 214 212 216 234 236 223 224 231 246 229 240 243 248 244 238 233 236 238 239 235 243 244
337 334 330 326 322 317 311 307 303 298 294 285 271 248 249 239 225 242 216 211 216 220 220 217 230 226 222 255 233 252 237 232 235 228 229 238 248 243 243 222 224 217 225 236 234
337 332 328 325 322 318 313 306 299 297 291 281 258 228 246 252 246 247 255 259 249 224 275 270 227 245 240 253 242 227 233 238 214 220 224 218 251 84 219 220 223 231 234 230 233
337 332 330 327 324 322 317 309 304 303 291 243 191 201 258 164 231 241 239 230 239 229 222 254 223 226 218 231 235 215 226 224 230 196 215 208 237 243 168 206 221 227 224 222 218
336 334 328 326 324 322 318 300 296 269 197 139 256 193 241 251 187 233 211 201 207 186 192 212 215 205 224 202 220 219 226 246 217 193 215 215 226 228 200 199 212 213 215 210 210
336 333 328 326 324 324 315 308 323 229 274 277 286 248 282 298 213 250 157 169 203 178 186 193 205 213 210 217 232 261 238 224 215 226 211 225 229 221 208 214 215 228 212 206 208
336 333 332 328 325 321 285 360 358 330 299 288 265 257 272 277 279 272 159 199 190 191 196 179 222 226 226 224 227 235 243 232 243 205 214 217 232 239 221 223 212 213 218 217 212
334 332 331 328 321 286 335 340 348 342 267 306 292 287 329 203 235 246 220 221 216 227 195 205 223 217 213 214 216 222 225 224 228 213 221 246 237 225 229 224 223 226 227 214 210
334 333 332 333 289 347 326 348 306 337 279 292 165 121 220 130 222 237 207 192 240 240 229 235 240 252 209 214 207 216 214 214 212 195 212 208 250 203 219 213 215 218 221 219 206
334 331 333 327 310 312 340 318 319 231 285 357 10 138 332 246 278 286 211 205 192 201 215 222 224 227 213 212 211 228 207 220 215 239 243 182 238 210 200 210 198 208 211 212 209
333 329 333 227 267 303 309 310 243 237 273 342 333 329 314 310 307 290 181 225 221 221 205 245 257 245 223 211 214 209 225 202 215 228 223 224 216 209 190 210 204 193 206 205 208
334 327 320 308 330 319 314 260 268 318 348 352 331 322 316 312 340 318 288 210 223 212 221 228 248 234 274 206 201 198 195 174 196 208 222 205 216 249 179 178 214 193 201 204 206
333 316 359 274 323 317 284 287 310 9 346 326 323 315 321 337 298 306 267 245 227 239 272 229 210 212 206 218 187 190 186 192 181 191 201 239 214 190 149 113 175 159 215 195 207
321 332 314 357 339 299 283 356 356 0 335 325 316 333 329 355 310 321 289 247 221 220 235 260 243 177 191 205 183 187 198 212 205 201 209 163 182 111 160 160 145 156 155 145 150
324 317 20 346 338 297 1 350 336 339 331 322 304 338 325 348 333 334 292 24 77 40 1 302 269 179 176 202 191 186 200 220 230 185 211 172 193 175 181 164 144 133 98 101 90
304 299 25 336 268 3 28 343 323 330 337 322 311 289 297 338 326 314 322 33 15 351 309 236 246 167 173 197 194 181 202 204 218 206 196 169 161 65 161 146 132 116 112 105 99
302 336 19 322 24 4 6 332 309 329 331 318 275 297 292 323 318 305 310 300 12 326 230 209 171 216 193 194 215 200 193 207 212 188 220 193 107 335 114 107 116 109 103 99 100
334 330 39 1 20 359 340 315 347 329 335 342 304 308 320 326 316 318 331 307 347 351 296 245 187 166 192 192 198 216 199 206 207 223 207 190 118 112 100 110 111 110 112 111 105
327 344 1 308 54 348 337 333 338 344 321 344 298 304 334 324 316 294 293 313 324 313 325 168 251 251 187 190 159 202 218 208 201 235 178 210 135 143 133 125 121 117 114 108 105
8 29 5 318 341 337 330 319 338 340 321 309 287 330 335 302 311 242 327 322 303 288 349 15 262 250 181 140 157 203 197 197 210 217 261 134 142 148 139 131 125 121 119 114 108
352 348 341 288 317 333 342 340 329 329 321 301 299 312 310 283 285 300 308 310 287 317 339 338 325 325 126 148 161 189 179 188 198 179 264 134 119 126 124 118 121 125 118 111 110
3 281 290 284 323 340 344 325 316 328 311 306 311 312 309 302 300 284 276 266 261 294 316 312 330 308 118 154 140 163 202 160 209 190 149 141 124 121 122 120 114 109 111 111 111